Regional Weather Roundup
Issued by NWS Little Rock, AR

Home | Current Version | Previous Version | Text Only | Print | Product List | Glossary Off
Versions: 1 2 3 4 5 6 7 8 9 10 11 12 13 14 15 16 17 18 19 20 21 22 23 24 25 26 27 28 29 30 31 32 33 34 35 36 37 38 39 40 41 42 43 44 45 46 47 48 49 50

000
ASUS44 KLZK 251205
RWRLZK

WEATHER ROUNDUP FOR ARKANSAS
NATIONAL WEATHER SERVICE LITTLE ROCK AR
600 AM CST SUN JAN 25 2015

NOTE: "FAIR" INDICATES FEW OR NO CLOUDS BELOW 12,000 FEET WITH NO
SIGNIFICANT WEATHER AND/OR OBSTRUCTIONS TO VISIBILITY.

ARZ001-003-010-029-251300-
NORTHWEST ARKANSAS

CITY           SKY/WX    TMP DP  RH WIND       PRES   REMARKS
FAYETTEVILLE   LGT RAIN  44  39  82 SW12      29.76F
6HR MIN TEMP:  44; 6HR MAX TEMP:  51; 6HR PCP:  0.05;

FORT SMITH     CLOUDY    44  39  82 W9        29.78F
6HR MIN TEMP:  35; 6HR MAX TEMP:  45; 6HR PCP: TRACE;

HARRISON       LGT RAIN  44  41  89 W14       29.70R
6HR MIN TEMP:  44; 6HR MAX TEMP:  53; 6HR PCP:  0.10;

BENTONVILLE    CLOUDY    45  37  76 W7        29.75F
6HR MIN TEMP:  45; 6HR MAX TEMP:  48; 6HR PCP:  0.03;

ROGERS         CLOUDY    44  38  79 W8        29.73F
6HR MIN TEMP:  44; 6HR MAX TEMP:  49; 6HR PCP:  0.01;

SILOAM SPGS    CLOUDY    43  34  70 W8        29.77S
6HR MIN TEMP:  43; 6HR MAX TEMP:  48; 6HR PCP:  0.01;

HIGHFILL       CLOUDY    44  39  82 W8        29.74F
6HR MIN TEMP:  44; 6HR MAX TEMP:  49; 6HR PCP:  0.05;

SPRINGDALE     LGT RAIN  45  39  81 W9        29.77
$$

ARZ004-005-016-251300-
NORTH CENTRAL ARKANSAS

CITY           SKY/WX    TMP DP  RH WIND       PRES   REMARKS
BATESVILLE     CLOUDY    48  36  61 SW9       29.72F
6HR MIN TEMP:  45; 6HR MAX TEMP:  48;

FLIPPIN        CLOUDY    52  34  50 W16       29.69R
6HR MIN TEMP:  46; 6HR MAX TEMP:  52;

MTN HOME       LGT RAIN  50  34  54 VRB6      29.68R
6HR MIN TEMP:  44; 6HR MAX TEMP:  50; 6HR PCP: TRACE;

$$

ARZ040-041-251300-
WEST CENTRAL ARKANSAS

CITY           SKY/WX    TMP DP  RH WIND       PRES   REMARKS
MENA           PTCLDY    46  36  66 W7        29.81F
MOUNT IDA      MOCLDY    50  35  56 W6        29.77S
6HR MIN TEMP:  36; 6HR MAX TEMP:  50;

$$

ARZ009-017-025-026-028-251300-
NORTHEAST ARKANSAS

CITY           SKY/WX    TMP DP  RH WIND       PRES   REMARKS
JONESBORO      CLOUDY    41  35  79 SW7       29.73F
6HR MIN TEMP:  38; 6HR MAX TEMP:  42;

NEWPORT        CLOUDY    41  36  82 S12       29.74F
6HR MIN TEMP:  35; 6HR MAX TEMP:  42;

WALNUT RIDGE   CLOUDY    41  34  75 S14       29.71F
6HR MIN TEMP:  36; 6HR MAX TEMP:  41;

BLYTHEVILLE    PTCLDY    42  35  76 S14       29.74F
6HR MIN TEMP:  39; 6HR MAX TEMP:  42;

$$

ARZ022-023-033-042-044-251300-
CENTRAL ARKANSAS

CITY           SKY/WX    TMP DP  RH WIND       PRES   REMARKS
LITTLE ROCK    MOCLDY    44  35  70 SW13      29.78F
6HR MIN TEMP:  38; 6HR MAX TEMP:  44;

N LITTLE ROCK    N/A     43  37  79 SW8       29.78F
6HR MIN TEMP:  42; 6HR MAX TEMP:  45;

JACKSONVILLE   CLOUDY    43  35  74 S6        29.76F
6HR MIN TEMP:  31; 6HR MAX TEMP:  43;

SEARCY         CLOUDY    42  35  76 SW8       29.77F
6HR MIN TEMP:  36; 6HR MAX TEMP:  43;

HOT SPRINGS    LGT RAIN  41  36  82 CALM      29.80F
6HR MIN TEMP:  36; 6HR MAX TEMP:  44; 6HR PCP: TRACE;

RUSSELLVILLE   CLOUDY    38  35  89 CALM      29.76S
6HR MIN TEMP:  32; 6HR MAX TEMP:  39;

CLINTON        CLOUDY    39  36  87 CALM      29.76S
$$

ARZ036-251300-
EAST ARKANSAS

CITY           SKY/WX    TMP DP  RH WIND       PRES   REMARKS
WEST MEMPHIS   MOCLDY    36  34  92 S10       29.78F
6HR MIN TEMP:  33; 6HR MAX TEMP:  43;

$$

ARZ050-053-066-070-073-251300-
SOUTHWEST ARKANSAS

CITY           SKY/WX    TMP DP  RH WIND       PRES   REMARKS
ARKADELPHIA    FAIR      38  36  92 SW7       29.84F
6HR MIN TEMP:  31; 6HR MAX TEMP:  38;

CAMDEN         CLEAR     34  32  93 CALM      29.87F
TEXARKANA      CLEAR     39  35  86 SW9       29.86F
6HR MIN TEMP:  39; 6HR MAX TEMP:  42;

EL DORADO      CLEAR     37  33  85 S6        29.88F
6HR MIN TEMP:  35; 6HR MAX TEMP:  41;

DE QUEEN       PTCLDY    31  30  96 CALM      29.85F
6HR MIN TEMP:  28; 6HR MAX TEMP:  32;

$$

ARZ056-057-069-251300-
SOUTHEAST ARKANSAS

CITY           SKY/WX    TMP DP  RH WIND       PRES   REMARKS
PINE BLUFF     PTCLDY    39  33  79 SW9       29.83F
6HR MIN TEMP:  38; 6HR MAX TEMP:  43;

STUTTGART      PTCLDY    39  34  81 S12       29.81F
6HR MIN TEMP:  37; 6HR MAX TEMP:  45;

MONTICELLO     CLEAR     42  33  70 SW9       29.86F
6HR MIN TEMP:  42; 6HR MAX TEMP:  45;


$$





USA.gov is the U.S. government's official web portal to all federal, state and local government web resources and services.